Regional Weather Roundup
Issued by NWS Charleston, SC

Current Version | Previous Version | Graphics & Text | Print | Product List | Glossary On
Versions: 1 2 3 4 5 6 7 8 9 10 11 12 13 14 15 16 17 18 19 20 21 22 23 24 25 26 27 28 29 30 31 32 33 34 35 36 37 38 39 40 41 42 43 44 45 46 47 48 49 50
000
ASUS42 KCHS 280227
RWRCHS

REGIONAL WEATHER ROUNDUP
NATIONAL WEATHER SERVICE CHARLESTON SC
1000 PM EDT THU APR 27 2017

NOTE: "FAIR" INDICATES FEW OR NO CLOUDS BELOW 12,000 FEET WITH NO
SIGNIFICANT WEATHER AND/OR OBSTRUCTIONS TO VISIBILITY.

NOT ALL STATIONS ARE QUALITY CONTROLLED. USE DATA WITH CAUTION...
ESPECIALLY DEWPOINT OBSERVATIONS.

SCZ027-030-031-034>040-042>050-280300-
...SOUTHEAST SOUTH CAROLINA...

CITY           SKY/WX    TMP DP  RH WIND       PRES   REMARKS
N CHARLESTON   CLOUDY    74  66  76 S9        29.93R
WATERFRONT PRK   N/A     75  72  90 S13       29.89R
JOHNS ISLAND   FAIR      75  73  94 S13G18    29.94R
PINOPOLIS        N/A     73  66  78 CALM      29.84R
MONCKS CORNER  CLOUDY    72  64  78 CALM      29.94R
SUMMERVILLE    FAIR      72  64  78 CALM      29.94R
BEAUFORT MCAS  CLEAR     77  68  73 S10       29.92R
BEAUFORT ARPT  FAIR      73  72  94 S12G17    29.94R
HILTON HEAD IS CLEAR     75  73  94 S10       29.95R
WALTERBORO     PTCLDY    72  63  73 S5        29.95R
ALLENDALE      FAIR      75  63  64 SE5       29.91R

...SOUTHERN MIDLANDS AND PEE DEE...

CITY           SKY/WX    TMP DP  RH WIND       PRES   REMARKS
GEORGETOWN     CLOUDY    73  72  94 S6        29.96R
KINGSTREE      CLOUDY    73  63  68 SE7       29.94R
ORANGEBURG     PTCLDY    74  62  66 S6        29.91R
BARNWELL       FAIR      77  66  69 CALM      29.92R
AIKEN          CLOUDY    70  66  88 CALM      29.95R
MANNING        FAIR      73  61  64 S7G25     29.94R
COLUMBIA       CLOUDY    78  63  59 S7        29.89R
SUMTER         CLOUDY    74  62  66 S6        29.89R
FLORENCE       CLOUDY    73  64  73 S8        29.92R
MYRTLE BEACH   NOT AVBL
N MYRTLE BEACH CLOUDY    73  72  96 S7        29.95R

$$

GAZ063-065-086>088-099>101-113>116-118-119-134>141-150-280300-
...SOUTHEAST GEORGIA...

CITY           SKY/WX    TMP DP  RH WIND       PRES   REMARKS
SAVANNAH ARPT  MOCLDY    76  66  71 S14       29.92R
HUNTER AAF     PTCLDY    76  73  91 S7        29.91R
FORT STEWART   CLEAR     76  64  66 S6        29.91R
STATESBORO     PTCLDY    77  63  62 CALM      29.92R
SYLVANIA       CLOUDY   N/A N/A N/A S3        29.92R
CLAXTON        FAIR      76  68  76 SE3       29.91R

...CSRA...CENTRAL AND FAR SOUTHEAST GEORGIA...

CITY           SKY/WX    TMP DP  RH WIND       PRES   REMARKS
THOMSON        CLOUDY    68  67  96 SW3       29.95R FOG
AUGUSTA-BUSH   CLOUDY    72  68  87 S5        29.88R
AUGUSTA-DANIEL CLOUDY    75  65  70 CALM      29.91R
SWAINSBORO     FAIR      77  64  65 S5        29.92R
VIDALIA        CLOUDY    81  64  57 SW7       29.92R
EASTMAN        FAIR      79  55  43 S7        29.92R
HAZLEHURST     FAIR      78  67  68 S6        29.91R
ALMA           CLEAR     78  66  66 SW6       29.91R
WAYCROSS       CLEAR     78  69  73 W5        29.92S
JESUP          FAIR      75  64  69 CALM      29.93R
BAXLEY         FAIR      77  70  78 CALM      29.92R
BRUNSWICK      CLEAR     77  73  88 S6        29.95R
SAINT SIMONS   PTCLDY    76  72  87 S5        29.93R

$$

SCZ027-028-034-036>038-045-046-048>050-GAZ119-141-280300-
...LAKE AND SUPPLEMENTAL COASTAL OBSERVATIONS...

STATION/POSITION TIME  TEMP    WIND        PRES    WAVE   SWELL
                       AIR SEA DIR/SP/G            HT/PER HT/PER/DIR
                 (UTC) (F)     (DEG/KT/KT) (MB)    (FT/S) (FT/S/D)
WINYAH BAY       0130   75     190/  9     1013.0S
LAKE MURRAY      0150   74     180/  4/  5 1011.5R
ACE BASIN NERRS  0145   76     170/  2     1013.0R
FORT PULASKI     0200   75 74  220/ 13/ 16 1014.0
SAPELO ISLAND    0130   76     190/ 13     1013.0R

$$

ANZ835-935-AMZ111-154-330-350-352-354-370-450-454-472-280300-
...C-MAN AND BUOY OBSERVATIONS...

STATION/POSITION TIME  TEMP    WIND        PRES    WAVE   SWELL
                       AIR SEA DIR/SP/G            HT/PER HT/PER/DIR
                 (UTC) (F)     (DEG/KT/KT) (MB)    (FT/S) (FT/S/D)
BUOY 41004       0150   75 74  170/ 14/ 17 1013.3R   4/ 8   2/120/ 8
BUOY 41008       0150   74 73  160/ 14/ 16 1012.6R   4/ 4   2/ 90/ 8
FOLLY BEACH CMAN 0200   74     170/ 15/ 18 1014.0R
CAPERS NEARSHORE 0208   75 74  180/ 16/ 21 1013.1R
FRIPP NEARSHORE  0208   74 71  190/ 14/ 19 1013.2R


STATION/POSITION TIME  TEMP    WIND        PRES    WAVE   SWELL
                       AIR SEA DIR/SP/G            HT/PER HT/PER/DIR
                 (UTC) (F)     (DEG/KT/KT) (MB)    (FT/S) (FT/S/D)
5E ST. MARYS GA  0200      74                N/A     4/ 5   2/100/13
FRYING PAN BUOY  0150   75 73  180/ 14/ 17 1014.0R   4/ 9   3/110/ 9
BUOY 41025       0150   77 77  200/ 19/ 23 1014.7R   5/ 9   3/120/ 9
CAPE LOOKOUT NC  0200   73     200/ 10/ 12 1014.7R
BUOY 41002       0150   75 75  150/ 16/ 17 1017.9F   5/ 8   3/100/ 8
BUOY 41010       0200   78 78  140/ 14/ 16 1016.0
ST AUGUSTINE FL  0200   76 77  190/  9/ 11 1014.6R


$$



USA.gov is the U.S. government's official web portal to all federal, state and local government web resources and services.